Location: Moscow
(55.7500°N, 37.5830°E)
Time: 22:38:15
(UTC+03:00)

COSMOS 2251 DEB - Pass Details

Date: 03 July 2022
Orbit: 738 x 847 km, 74.1° (Epoch: 17 August)

Event Time Altitude Azimuth Distance (km) Brightness Sun altitude
Rises 23:17:44 0° 297° (WNW) 3,309 ? -9.7°
Reaches altitude 10° 23:22:15 10° 332° (NNW) 2,349 ? -9.9°
Maximum altitude 23:23:47 11° 349° (N) 2,258 ? -9.9°
Drops below altitude 10° 23:25:20 10° 6° (N) 2,329 ? -10.0°
Sets 23:29:44 0° 42° (NE) 3,229 ? -10.2°
